Погода в Савонлинна

Финляндия     61°52′11″N   28°52′48″E
темп.,
°C
ветер,
м/с
пор.,
м/с
влажн.,
%
обл.,
%
осадки,
мм/ч
давл.,
гПа
погр.,
м
23 апреля, пт
пт2300:00+2ююв2282100 0.0 100524
03:00+2ююз3593100 0.6 1005122
06:00+1зюз3599100 1.9 1004177
09:00+2юв229398 2.2 1004171
12:00+3юв3486100 0.1 1005337
15:00+3ююв3592100 0.8 1005365
18:00+4ю367387 0.9 1005532
21:00+1ююв33835 0.9 100527
24 апреля, сб
сб2400:000ююв249278 0.0 100574
03:000ю259899 0.0 1005151
06:00+1юв3592100 0.1 1006189
09:00+2ююв237799 0.1 1006346
12:00+3в237396 0.0 1007473
15:00+3всв1286100 0.6 1007425
18:00+3з1286100 1.4 1007362
21:00+1с119326 1.7 100739
25 апреля, вс
вс2500:000ссв3498100 0.0 1006143
03:00+1сз2397100 0.2 100692
06:00+1зсз2297100 0.1 100576
09:00+1з1191100 0.1 1005164
12:00+2зсз2291100 0.1 1006250
15:00+2зсз2293100 0.1 1007223
18:00+2сз1297100 0.1 1007166
21:00+2зсз2294100 0.1 100746
26 апреля, пн
пн2600:00+1зсз2295100 0.0 100729
03:00+1сз2397100 0.0 1006197
06:00+1зсз3798100 0.1 1005276
09:00+1зсз4798100 1.9 1005248
12:00+3с3696100 0.8 1005350
15:00+2с3798100 2.0 1005330
18:00+2ссв3698100 1.6 1004303
21:00+2с3798100 2.9 1004318
27 апреля, вт
вт2700:00+2с3799100 1.4 1004287
03:00+2с3798100 1.6 1004280
06:00+2с3798100 0.3 1004283
09:00+3ссз359292 0.4 1004330
12:00+3сз4688100 0.1 1005392
15:00+3ссз468682 0.2 1005400
18:00+2ссз3690100 0.1 1006285
21:00+2сз3598100 0.1 1007216